Terminal Aerodrome Forecast
Issued by NWS Denver/Boulder, CO

Home | Current Version | Previous Version | Text Only | Print | Product List | Glossary On
Versions: 1 2 3 4 5 6 7 8 9 10 11 12 13 14 15 16 17 18 19 20 21 22 23 24 25 26 27 28 29 30 31 32 33 34 35 36 37 38 39 40 41 42 43 44 45 46 47 48 49 50
000
FTUS45 KBOU 310806 AAB
TAFDEN
TAF AMD
KDEN 310806Z 3108/0112 30012KT P6SM SCT090 BKN130
     FM311100 26009KT P6SM SCT090 BKN130
     FM311400 32009KT P6SM VCSH SCT080 BKN120
     FM311800 01014G24KT P6SM VCSH SCT070 BKN110 PROB30 3120/3124
      5SM -TSRA BKN070CB
     FM010200 11009KT P6SM VCSH SCT060 BKN120
     FM010500 16008KT P6SM FEW060 SCT120=

USA.gov is the U.S. government's official web portal to all federal, state and local government web resources and services.